Terminal Aerodrome Forecast
Issued by NWS

Home | Current Version | Previous Version | Text Only | Print | Product List | Glossary On
Versions: 1 2 3 4 5 6 7 8 9 10 11 12 13 14 15 16 17 18 19 20 21 22 23 24 25 26 27 28
000
FTUS44 KFWD 020500
TAFFTW
TAF
KFTW 020520Z 0206/0306 16015KT P6SM SKC
     FM021200 17012KT P6SM BKN022
     FM021500 17014KT P6SM SCT040=

USA.gov is the U.S. government's official web portal to all federal, state and local government web resources and services.